Tracking 35331 objects as of 15-Sep-2026
HD Live streaming from Space Station
objects crossing your sky now

DMSP 5D-2 F11 DEB


10-day predictions


NORAD ID: 29091
Int'l Code: 1991-082CL
Launch date: November 28, 1991
Source: United States (US)
Launch site: AIR FORCE WESTERN TEST RANGE (AFWTR)

Note: This is SATELLITE DEBRIS
Your satellite tracking list
Your tracking list is empty




NASA's NSSDC Master Catalog

Two Line Element Set (TLE):
1 29091U 91082CL  07210.75436747  .00011373  00000-0  72448-2 0  9996
2 29091  98.8108 196.4957 0070261  47.5150 313.2438 14.02537478109887
Source of the keplerian elements: AFSPC